Troy, AL

6:31 PM CST on February 18, 2018 (GMT -0600)
Troy Municipal

Weather History for KTOI - February, 2012

Change the Weather History Date:

Friday, February 24, 2012

  Actual Average Record
Temperature  
Mean Temperature 61 °F 52 °F  
Max Temperature 73 °F 64 °F 81 °F (2017)
Min Temperature 49 °F 39 °F 28 °F (2009)
Degree Days  
Heating Degree Days 4 13  
Month to date heating degree days 291 375  
Since 1 July heating degree days 1569 1867  
Growing Degree Days 12 (Base 50)    
Moisture  
Dew Point 52 °F    
Average Humidity 65    
Maximum Humidity 90    
Minimum Humidity 39    
Precipitation  
Precipitation 0.25 in 0.16 in 0.31 in (2015)
Month to date precipitation 4.78 3.89  
Year to date precipitation 9.28 8.44  
Snow  
Snow 0.00 in - - ()
Month to date snowfall 0.0  
Since 1 July snowfall 0.0  
Snow Depth 0.00 in    
Sea Level Pressure  
Sea Level Pressure 29.90 in    
Wind  
Wind Speed 11 mph (West)    
Max Wind Speed 37 mph    
Max Gust Speed 46 mph    
Visibility 8 miles    
Events Rain , Thunderstorm    
T = Trace of Precipitation, MM = Missing Value Source: NWS Daily Summary

Daily Weather History Graph

Daily Weather History Graph

Search for Another Location

Airport or City:

Trip Planner

Search our weather history database for the weather conditions in past years. The results will help you decide how hot, cold, wet, or windy it might be!

Date:

Astronomy

Feb. 24, 2012 Rise Set
Actual Time 6:17 AM CST 5:37 PM CST
Civil Twilight 5:52 AM CST 6:02 PM CST
Nautical Twilight 5:24 AM CST 6:30 PM CST
Astronomical Twilight 4:56 AM CST 6:59 PM CST
Moon 7:25 AM CST (2/24) 8:24 PM CST (2/24)
Length of Visible Light 12h 09m
Length of Day
11h 20m
Waxing Crescent, 8% of the Moon is Illuminated
Feb 24
Waxing Crescent
Feb 29
First Quarter
Mar 8
Full
Mar 14
Last Quarter
Mar 22
New

Hourly Weather History & Observations

Time (CST) Temp. Dew Point Humidity Pressure Visibility Wind Dir Wind Speed Gust Speed Precip Events Conditions
12:53 AM 70.0 °F 64.9 °F 84% 29.76 in 10.0 mi SSW 12.7 mph 18.4 mph N/A   Overcast
1:53 AM 70.0 °F 66.0 °F 87% 29.75 in 10.0 mi SW 10.4 mph - N/A   Overcast
2:53 AM 70.0 °F 66.0 °F 87% 29.74 in 10.0 mi SSW 10.4 mph - N/A   Mostly Cloudy
3:53 AM 70.0 °F 66.0 °F 87% 29.75 in 10.0 mi SSW 8.1 mph 17.3 mph 0.00 in   Overcast
4:53 AM 70.0 °F 66.0 °F 87% 29.76 in 10.0 mi SSW 12.7 mph 19.6 mph N/A   Overcast
5:53 AM 70.0 °F 66.0 °F 87% 29.77 in 10.0 mi SSW 11.5 mph 19.6 mph N/A   Overcast
6:53 AM 69.1 °F 66.0 °F 90% 29.77 in 9.0 mi SSW 13.8 mph 23.0 mph 0.00 in   Overcast
7:20 AM 69.8 °F 66.2 °F 88% 29.78 in 9.0 mi SSW 13.8 mph 21.9 mph N/A   Overcast
7:36 AM 69.8 °F 64.4 °F 83% 29.80 in 10.0 mi SSW 12.7 mph 25.3 mph N/A   Overcast
7:53 AM 70.0 °F 64.9 °F 84% 29.79 in 10.0 mi SSW 16.1 mph 24.2 mph N/A   Overcast
8:53 AM 69.8 °F 64.4 °F 83% 29.79 in 10.0 mi SW 13.8 mph 26.5 mph N/A   Overcast
9:53 AM 73.0 °F 64.9 °F 76% 29.79 in 10.0 mi SW 18.4 mph 31.1 mph N/A   Overcast
10:42 AM 73.4 °F 64.4 °F 73% 29.80 in 10.0 mi SW 13.8 mph 27.6 mph 0.00 in Thunderstorm Thunderstorm
10:53 AM 71.1 °F 64.0 °F 78% 29.83 in 0.2 mi WNW 26.5 mph 36.8 mph 0.07 in Rain , Thunderstorm Heavy Rain
10:57 AM 64.4 °F 60.8 °F 88% 29.85 in 1.0 mi NW 28.8 mph 40.3 mph 0.02 in Rain , Thunderstorm Heavy Rain
11:03 AM 57.2 °F 55.4 °F 94% 29.87 in 1.2 mi NW 28.8 mph 46.0 mph 0.07 in Rain Heavy Rain
11:07 AM 57.2 °F 53.6 °F 88% 29.86 in 1.5 mi NW 29.9 mph 46.0 mph N/A Rain Heavy Rain
11:12 AM 55.4 °F 53.6 °F 94% 29.87 in 2.0 mi NW 26.5 mph 40.3 mph N/A Rain Rain
11:22 AM 55.4 °F 53.6 °F 94% 29.89 in 8.0 mi NW 18.4 mph 32.2 mph N/A Rain Light Rain
11:53 AM 55.0 °F 50.0 °F 83% 29.91 in 4.0 mi NW 12.7 mph 29.9 mph 0.17 in Rain Heavy Rain
12:53 PM 55.4 °F 44.6 °F 67% 29.90 in 10.0 mi NW 12.7 mph 21.9 mph 0.00 in   Overcast
1:53 PM 59.0 °F 42.8 °F 55% 29.92 in 10.0 mi NW 12.7 mph 27.6 mph N/A   Overcast
2:53 PM 55.0 °F 37.0 °F 51% 29.98 in 10.0 mi NW 15.0 mph 23.0 mph 0.00 in Rain Light Rain
3:53 PM 51.1 °F 43.0 °F 74% 29.99 in 10.0 mi WSW 3.5 mph - 0.01 in   Overcast
4:53 PM 51.1 °F 42.1 °F 71% 30.02 in 10.0 mi West 4.6 mph - N/A   Overcast
5:53 PM 51.1 °F 35.1 °F 54% 30.02 in 10.0 mi West 3.5 mph - 0.00 in Rain Light Rain
6:53 PM 50.0 °F 37.9 °F 63% 30.06 in 10.0 mi WNW 3.5 mph - 0.00 in   Partly Cloudy
7:53 PM 50.0 °F 36.0 °F 59% 30.08 in 10.0 mi NW 6.9 mph - N/A   Mostly Cloudy
8:53 PM 50.0 °F 30.0 °F 46% 30.11 in 10.0 mi NW 6.9 mph - N/A   Mostly Cloudy
9:53 PM 51.1 °F 28.0 °F 41% 30.15 in 10.0 mi NW 10.4 mph - N/A   Mostly Cloudy
10:53 PM 50.0 °F 27.0 °F 41% 30.18 in 10.0 mi NW 9.2 mph - N/A   Clear
11:53 PM 48.9 °F 28.0 °F 44% 30.20 in 10.0 mi NNW 10.4 mph - N/A   Clear